Regional Weather Roundup
Issued by NWS

Home | Current Version | Previous Version | Text Only | Print | Product List | Glossary Off
Versions: 1 2 3 4 5 6 7 8 9 10 11 12 13 14 15 16 17 18 19 20 21 22 23 24 25 26 27 28 29 30 31 32 33 34 35 36 37 38 39 40 41 42 43 44 45 46 47 48 49 50

000
ASUS45 KTFX 031210
RWRMT
MONTANA REGIONAL WEATHER ROUNDUP
NATIONAL WEATHER SERVICE GREAT FALLS MT
600 AM MDT FRI JUL 03 2015

NOTE: "FAIR" INDICATES FEW OR NO CLOUDS BELOW 12000 FEET WITH NO
SIGNIFICANT WEATHER AND/OR OBSTRUCTIONS TO VISIBILITY.

MTZ001>007-043-031300-
WEST OF THE DIVIDE

CITY           SKY/WX    TMP DP  RH WIND       PRES   REMARKS
KALISPELL      SUNNY     53  49  86 W3        29.97R
MISSOULA       CLEAR     61  45  55 CALM      30.02R
BUTTE          CLEAR     54  44  69 CALM      30.14S
MULLAN PASS    CLEAR     67  37  33 N6        30.16S
DEER LODGE       N/A     52  46  82 CALM      30.13R
EUREKA           N/A     55  46  71 CALM      29.98R
HAMILTON         N/A     59  41  51 S2        30.03R
PLAINS           N/A     56  47  71 CALM      29.98S
RONAN            N/A     56  51  83 CALM      30.02S
$$

MTZ008-052>055-031300-
SOUTHWEST MONTANA

CITY           SKY/WX    TMP DP  RH WIND       PRES   REMARKS
BOZEMAN        CLEAR     59  49  69 N3        30.07F
DILLON         CLEAR     52  45  77 SW8       30.11R
W YELLOWSTONE  CLEAR     39  37  93 CALM      30.23S
THREE FORKS      N/A     55  55 100 CALM      30.06S
TWIN BRIDGES     N/A     54  42  63 E3        30.08R
$$

MTZ009-010-012-014-046-048-049-054-031300-
EAST SLOPES AND CENTRAL MONTANA

CITY           SKY/WX    TMP DP  RH WIND       PRES   REMARKS
CUT BANK       CLEAR     58  48  69 SW3       30.01S
GREAT FALLS    CLEAR     59  49  69 SW8       30.00F
MALMSTROM AFB  CLEAR     61  50  66 SE3       30.01S
HELENA         CLEAR     63  48  58 SW3       30.05S
CONRAD           N/A     51  51 100 CALM      30.02F
$$

MTZ011-013-016-021-045-047-050-051-031300-
NORTH CENTRAL MONTANA

CITY           SKY/WX    TMP DP  RH WIND       PRES   REMARKS
HAVRE          CLEAR     54  51  90 CALM      29.96F FOG
LEWISTOWN      CLEAR     55  49  80 E7        30.06F HAZE
CHINOOK          N/A     59  55  88 E9        29.98S
FORT BENTON      N/A     61  54  77 CALM      29.99S
$$

MTZ017>020-022>027-061-062-031300-
NORTHEAST MONTANA

CITY           SKY/WX    TMP DP  RH WIND       PRES   REMARKS
GLASGOW        CLEAR     60  55  83 E8        30.00S HAZE
JORDAN           N/A     55  50  83 W5        30.02S
SIDNEY         PTCLDY    61  57  88 CALM      30.02R
WOLF POINT     FOG       58  56  93 CALM      30.01S VSB 1
MALTA            N/A     55  50  83 CALM      29.96F
PLENTYWOOD       N/A     57  57 100 N5        30.02S VSB 3/4
POPLAR           N/A     57  57 100 CALM      30.02R
SCOBEY           N/A     52  47  83 CALM      30.01F VSB 0
$$

MTZ028>42-056>058-031300-
SOUTHCENTRAL AND SOUTHEAST MONTANA

CITY           SKY/WX    TMP DP  RH WIND       PRES   REMARKS
BAKER          CLEAR     59  55  87 CALM      30.06R FOG
BILLINGS       PTCLDY    63  50  62 CALM      30.06F HAZE
LIVINGSTON     CLEAR     56  49  77 CALM      30.11S
MILES CITY     PTCLDY    58  53  84 NW3       30.02S
EKALAKA          N/A     60  53  77 SE7       30.05S
FORSYTH          N/A     57  55  94 CALM      30.02S
LAUREL           N/A     58  48  69 CALM      30.05S
ROUNDUP          N/A     56  49  77 SW3       29.97F
$$

REGIONAL REPORTS...DAKOTAS

CITY           SKY/WX    TMP DP  RH WIND       PRES   REMARKS
WILLISTON      PTCLDY    60  58  92 N3        30.02S FOG
MINOT          CLOUDY    60  58  92 W3        29.99R FOG
DICKINSON      PTCLDY    59  57  93 S3        30.03R FOG
BEACH          FAIR      55  55 100 S3        30.05S FOG
CROSBY         FOG       57  57 100 S3        30.02S VSB 3/4
BISMARCK       CLOUDY    63  61  93 W6        30.02R FOG
GRAND FORKS    FOG       62  61  96 W5        29.92R VSB 1
FARGO          PTSUNNY   64  62  93 W3        29.93R FOG
BUFFALO SD       N/A     59  56  89 E6        30.01R
RAPID CITY     CLEAR     57  55  93 W5        30.09R
$$

REGIONAL REPORTS...WYOMING/IDAHO/WASHINGTON

CITY           SKY/WX    TMP DP  RH WIND       PRES   REMARKS
GILLETTE       CLEAR     56  52  86 S8        30.11S
SHERIDAN       CLEAR     52  48  86 CALM      30.08S
BUFFALO WY     PTCLDY    58  47  66 CALM      30.13S
CODY           CLEAR     63  48  59 SW7       30.13S
YELLOWSTONE LA   N/A     43  39  86 CALM      30.32F
IDAHO FALLS    CLEAR     53  48  83 CALM      30.04S
SALMON         CLEAR     54  39  58 CALM      30.05R
BOISE          CLEAR     72  44  36 CALM      29.91F
SPOKANE        CLOUDY    69  45  41 CALM      29.92R
$$

REGIONAL REPORTS...ALBERTA

CITY           SKY/WX    TMP DP  RH WIND       PRES   REMARKS
EDMONTON       CLEAR     66  54  63 SW8       29.84S
CALGARY        PTCLDY    59  54  82 VRB2      29.96F
LETHBRIDGE     PTCLDY    55  54  94 SW7       29.93F
MEDICINE HAT   PTCLDY    64  57  77 SW6       29.93S HAZE
WATERTON GATE    N/A     61  46  59 S12G17      N/A
CARDSTON         N/A     59  50  72 S2          N/A
MILK RIVER       N/A     59  52  77 SW7         N/A
ONEFOUR          N/A     57  54  88 NE10        N/A
$$

REGIONAL REPORTS...SASKATCHEWAN

CITY           SKY/WX    TMP DP  RH WIND       PRES   REMARKS
SWIFT CURRENT  CLEAR     59  55  88 S9        29.99S FOG
REGINA         PTCLDY    57  55  94 SE7       30.00S FOG
SASKATOON      PTCLDY    59  57  94 S3        29.95S
CYPRESS HILLS    N/A     57  50  77 S6          N/A
VAL MARIE        N/A     50  48  93 CALM        N/A
ROCKGLEN         N/A     57  55  94 SW6         N/A
ASSINIBOIA       N/A     57  55  94 S6          N/A
$$



USA.gov is the U.S. government's official web portal to all federal, state and local government web resources and services.